CW1521 Weather Reports


time (UTC)temp
C
wind
direction
speed
KPH
gust
KPH
rain 1hr
cm
rain 24hr
cm
rain mn
cm
humidity
%
barometer
mb
20260508054638 16 165 4.8 11.3 0.00 0.00 0.00 85 1009.4
20260508054051 16 98 3.2 9.7 0.00 0.00 0.00 85 1009.4
20260508053552 16 152 4.8 11.3 0.00 0.00 0.00 84 1009.4
20260508053054 16 102 4.8 11.3 0.00 0.00 0.00 84 1009.4
20260508052550 16 140 3.2 9.7 0.00 0.00 0.00 84 1009.4
20260508052051 16 1 1.6 9.7 0.00 0.00 0.00 84 1009.4
20260508051551 16 56 1.6 12.9 0.00 0.00 0.00 84 1009.5
20260508051051 16 98 6.4 14.5 0.00 0.00 0.00 84 1009.4
20260508050551 16 145 4.8 14.5 0.00 0.00 0.00 84 1009.4
20260508050050 16 89 3.2 9.7 0.00 0.00 0.00 84 1009.4
20260508045549 16 157 3.2 9.7 0.00 0.00 0.00 84 1009.3
20260508045049 16 184 1.6 9.7 0.00 0.00 0.00 84 1009.3
20260508044550 16 107 4.8 9.7 0.00 0.00 0.00 84 1009.3
20260508044049 16 269 0.0 9.7 0.00 0.00 0.00 84 1009.3
20260508043550 16 96 3.2 9.7 0.00 0.00 0.00 84 1009.3
20260508043057 16 82 3.2 8.0 0.00 0.00 0.00 84 1009.2
20260508042551 16 178 1.6 11.3 0.00 0.00 0.00 84 1009.1
20260508042048 16 20 4.8 11.3 0.00 0.00 0.00 84 1009.0
20260508041551 16 114 1.6 8.0 0.00 0.00 0.00 84 1008.9
20260508041048 16 114 1.6 8.0 0.00 0.00 0.00 84 1008.9
20260508040648 16 108 3.2 11.3 0.00 0.00 0.00 84 1008.8
20260508040047 16 135 3.2 11.3 0.00 0.00 0.00 84 1008.7
20260508035547 16 76 1.6 11.3 0.00 0.00 0.00 84 1008.7
20260508035048 16 68 4.8 9.7 0.00 0.00 0.00 84 1008.7
20260508034551 16 89 3.2 9.7 0.00 0.00 0.00 84 1008.6
20260508034047 16 171 4.8 9.7 0.00 0.00 0.00 84 1008.5
20260508033546 16 89 1.6 12.9 0.00 0.00 0.00 84 1008.4
20260508033046 16 84 3.2 12.9 0.00 0.00 0.00 84 1008.4
20260508032549 16 169 3.2 12.9 0.00 0.00 0.00 83 1008.3
20260508032046 16 117 3.2 12.9 0.00 0.00 0.00 83 1008.2
20260508031549 16 89 1.6 9.7 0.00 0.00 0.00 83 1008.2
20260508031045 16 127 1.6 9.7 0.00 0.00 0.00 83 1008.1
20260508030545 16 46 1.6 9.7 0.00 0.00 0.00 83 1008.1
20260508030046 16 161 1.6 11.3 0.00 0.00 0.00 83 1008.0
20260508025544 16 140 4.8 11.3 0.00 0.00 0.00 83 1007.9
20260508025045 16 46 1.6 11.3 0.00 0.00 0.00 83 1007.8
20260508024554 16 171 3.2 11.3 0.00 0.00 0.00 83 1007.8
20260508024047 16 112 3.2 11.3 0.00 0.00 0.00 83 1007.7
20260508023544 16 98 3.2 8.0 0.00 0.00 0.00 83 1007.7
20260508023044 16 117 1.6 8.0 0.00 0.00 0.00 83 1007.7
20260508022546 17 35 3.2 12.9 0.00 0.00 0.00 82 1007.6
20260508022043 17 46 1.6 12.9 0.00 0.00 0.00 82 1007.6
20260508021543 17 65 1.6 9.7 0.00 0.00 0.00 82 1007.6
20260508021044 17 159 1.6 8.0 0.00 0.00 0.00 82 1007.5
20260508020542 17 178 1.6 8.0 0.00 0.00 0.00 81 1007.5
20260508020048 17 135 0.0 9.7 0.00 0.00 0.00 81 1007.4
20260508015542 17 286 3.2 9.7 0.00 0.00 0.00 81 1007.5
20260508015042 17 178 3.2 9.7 0.00 0.00 0.00 81 1007.4
20260508014542 17 269 1.6 6.4 0.00 0.00 0.00 81 1007.5
20260508014041 17 89 1.6 9.7 0.00 0.00 0.00 81 1007.4
20260508013541 17 89 1.6 9.7 0.00 0.00 0.00 81 1007.3
20260508013041 17 105 3.2 11.3 0.00 0.00 0.00 81 1007.4
20260508012541 17 76 3.2 14.5 0.00 0.00 0.00 80 1007.5
20260508012041 17 169 4.8 17.7 0.00 0.00 0.00 80 1007.5
20260508011541 17 100 3.2 17.7 0.00 0.00 0.00 80 1007.5
20260508011041 17 89 4.8 9.7 0.00 0.00 0.00 80 1007.5
20260508010541 17 269 1.6 8.0 0.00 0.00 0.00 79 1007.5
20260508010048 17 161 1.6 8.0 0.00 0.00 0.00 79 1007.6
20260508005542 17 178 1.6 11.3 0.00 0.00 0.00 79 1007.5
20260508005044 17 277 1.6 11.3 0.00 0.00 0.00 78 1007.4
20260508004541 18 193 3.2 11.3 0.00 0.00 0.00 78 1007.4
20260508004040 18 223 3.2 12.9 0.00 0.00 0.00 77 1007.4
20260508003539 18 303 4.8 12.9 0.00 0.00 0.00 78 1007.4
20260508003040 18 46 1.6 9.7 0.00 0.00 0.00 77 1007.4
20260508002539 18 46 3.2 9.7 0.00 0.00 0.00 78 1007.4
20260508002039 18 178 3.2 9.7 0.00 0.00 0.00 78 1007.4
20260508001538 18 156 3.2 9.7 0.00 0.00 0.00 78 1007.4
20260508001038 18 72 1.6 8.0 0.00 0.00 0.00 78 1007.3
20260508000539 18 139 1.6 9.7 0.00 0.00 0.00 78 1007.4
20260508000035 18 252 0.0 14.5 0.00 0.00 0.00 77 1007.5
20260507235535 18 250 4.8 14.5 0.00 0.00 0.00 77 1007.5
20260507235035 18 269 3.2 12.9 0.00 0.00 0.00 76 1007.5
20260507234535 18 46 1.6 8.0 0.00 0.00 0.00 76 1007.5
20260507234034 18 152 1.6 11.3 0.00 0.00 0.00 76 1007.5
20260507233534 18 269 4.8 12.9 0.00 0.00 0.00 76 1007.5
20260507233034 18 360 0.0 12.9 0.00 0.00 0.00 76 1007.5
20260507232533 18 250 1.6 12.9 0.00 0.00 0.00 77 1007.5
20260507232033 18 274 3.2 12.9 0.00 0.00 0.00 76 1007.5
20260507231542 18 178 1.6 11.3 0.00 0.00 0.00 76 1007.5
20260507231037 18 46 4.8 14.5 0.00 0.00 0.00 76 1007.5
20260507230532 18 269 4.8 16.1 0.00 0.00 0.00 77 1007.7
20260507230039 18 257 4.8 16.1 0.00 0.00 0.00 77 1007.6
20260507225531 18 178 4.8 17.7 0.00 0.00 0.00 77 1007.6
20260507225031 18 264 6.4 17.7 0.00 0.00 0.00 77 1007.7
20260507224532 18 262 6.4 14.5 0.00 0.00 0.00 75 1007.8
20260507224030 18 331 3.2 17.7 0.00 0.00 0.00 76 1007.8
20260507223529 18 274 4.8 17.7 0.00 0.00 0.00 75 1007.8
20260507223029 19 271 6.4 16.1 0.00 0.00 0.00 75 1007.8
20260507222528 19 188 6.4 17.7 0.00 0.00 0.00 75 1007.9
20260507222028 18 197 3.2 17.7 0.00 0.00 0.00 76 1007.8
20260507221528 18 274 3.2 16.1 0.00 0.00 0.00 76 1007.9
20260507221027 18 272 4.8 16.1 0.00 0.00 0.00 76 1008.0
20260507220526 18 1 6.4 17.7 0.00 0.00 0.00 76 1008.1
20260507220025 18 277 8.0 19.3 0.00 0.00 0.00 76 1008.1
20260507215525 18 269 8.0 19.3 0.00 0.00 0.00 75 1008.2
20260507215024 18 283 3.2 19.3 0.00 0.00 0.00 76 1008.2
20260507214524 18 171 6.4 19.3 0.00 0.00 0.00 75 1008.3
20260507214023 19 269 4.8 22.5 0.00 0.00 0.00 75 1008.3
20260507213523 18 269 3.2 22.5 0.00 0.00 0.00 75 1008.5
20260507213022 19 269 8.0 22.5 0.00 0.00 0.00 75 1008.6
20260507212521 19 346 3.2 14.5 0.00 0.00 0.00 75 1008.4
20260507212022 19 223 4.8 16.1 0.00 0.00 0.00 75 1008.5
20260507211533 19 276 4.8 16.1 0.00 0.00 0.00 74 1008.6
20260507211020 19 232 4.8 19.3 0.00 0.00 0.00 75 1008.5
20260507210519 19 288 4.8 19.3 0.00 0.00 0.00 75 1008.6
20260507210018 18 197 6.4 17.7 0.00 0.00 0.00 75 1008.6
20260507205518 19 269 3.2 17.7 0.00 0.00 0.00 74 1008.6
20260507205016 19 269 6.4 19.3 0.00 0.00 0.00 75 1008.7
20260507204521 18 269 9.7 19.3 0.00 0.00 0.00 74 1008.7
20260507204016 18 259 4.8 20.9 0.00 0.00 0.00 74 1008.8
20260507203516 18 269 8.0 20.9 0.00 0.00 0.00 75 1008.8
20260507203021 18 274 4.8 19.3 0.00 0.00 0.00 75 1008.8
20260507202515 18 269 3.2 20.9 0.00 0.00 0.00 76 1008.7
20260507202015 19 274 3.2 20.9 0.00 0.00 0.00 75 1008.7
20260507201515 18 331 6.4 20.9 0.00 0.00 0.00 75 1008.8
20260507201014 18 262 6.4 20.9 0.00 0.00 0.00 74 1008.7
20260507200516 18 269 6.4 17.7 0.00 0.00 0.00 75 1008.8
20260507200013 18 279 8.0 19.3 0.00 0.00 0.00 75 1008.8
20260507195514 18 229 3.2 19.3 0.00 0.00 0.00 74 1008.9
20260507195013 18 269 3.2 20.9 0.00 0.00 0.00 75 1008.9
20260507194513 18 331 8.0 20.9 0.00 0.00 0.00 75 1008.9
20260507194012 18 190 3.2 17.7 0.00 0.00 0.00 76 1008.9
20260507193513 18 271 6.4 20.9 0.00 0.00 0.00 75 1008.9
20260507193011 18 274 6.4 20.9 0.00 0.00 0.00 75 1009.0
20260507192511 18 276 6.4 14.5 0.00 0.00 0.00 74 1009.0
20260507192011 18 269 6.4 16.1 0.00 0.00 0.00 75 1009.1
20260507191511 18 269 6.4 16.1 0.00 0.00 0.00 74 1009.1
20260507191009 18 269 3.2 14.5 0.00 0.00 0.00 76 1009.2
20260507190508 18 295 4.8 17.7 0.00 0.00 0.00 75 1009.3
20260507190010 18 271 4.8 17.7 0.00 0.00 0.00 75 1009.3
20260507185506 18 269 3.2 17.7 0.00 0.00 0.00 75 1009.4
20260507185006 18 278 4.8 14.5 0.00 0.00 0.00 74 1009.5
20260507184505 18 283 4.8 16.1 0.00 0.00 0.00 74 1009.6
20260507184004 18 295 3.2 16.1 0.00 0.00 0.00 76 1009.5
20260507183503 18 269 4.8 17.7 0.00 0.00 0.00 75 1009.6
20260507183002 18 269 4.8 19.3 0.00 0.00 0.00 75 1009.6
20260507182501 18 269 4.8 19.3 0.00 0.00 0.00 75 1009.6
20260507182000 18 269 8.0 14.5 0.00 0.00 0.00 74 1009.6
20260507181559 18 269 3.2 12.9 0.00 0.00 0.00 75 1009.5
20260507181058 18 274 4.8 17.7 0.00 0.00 0.00 75 1009.5
20260507180558 18 269 6.4 17.7 0.00 0.00 0.00 75 1009.6
20260507180100 18 178 3.2 12.9 0.00 0.00 0.00 74 1009.5
20260507175553 18 269 6.4 14.5 0.00 0.00 0.00 73 1009.6
20260507175053 18 279 6.4 14.5 0.00 0.00 0.00 74 1009.7
20260507174605 18 234 3.2 12.9 0.00 0.00 0.00 75 1009.7
20260507174049 18 269 1.6 12.9 0.00 0.00 0.00 76 1009.7
20260507173549 18 269 3.2 14.5 0.00 0.00 0.00 76 1009.7
20260507173049 18 283 4.8 14.5 0.00 0.00 0.00 77 1009.7
20260507172547 18 276 3.2 16.1 0.00 0.00 0.00 77 1009.8
20260507172046 18 258 4.8 16.1 0.00 0.00 0.00 77 1009.8
20260507171600 17 269 6.4 14.5 0.00 0.00 0.00 77 1009.8
20260507171044 17 178 3.2 12.9 0.00 0.00 0.00 78 1009.9
20260507170544 17 274 6.4 14.5 0.00 0.00 0.00 77 1009.8
20260507170042 17 269 4.8 14.5 0.00 0.00 0.00 77 1009.8
20260507165541 17 269 4.8 14.5 0.00 0.00 0.00 77 1009.8
20260507165041 17 283 3.2 12.9 0.00 0.00 0.00 77 1009.8
20260507164547 17 174 3.2 12.9 0.00 0.00 0.00 78 1009.8
20260507164039 17 257 3.2 11.3 0.00 0.00 0.00 78 1009.8
20260507163537 17 269 3.2 12.9 0.00 0.00 0.00 78 1009.8
20260507163044 17 272 3.2 12.9 0.00 0.00 0.00 78 1009.8
20260507162535 17 271 3.2 14.5 0.00 0.00 0.00 79 1009.8
20260507162035 17 277 3.2 14.5 0.00 0.00 0.00 79 1009.8
20260507161540 17 269 3.2 11.3 0.00 0.00 0.00 79 1009.8
20260507161031 17 269 1.6 12.9 0.00 0.00 0.00 79 1009.8
20260507160530 17 272 4.8 12.9 0.00 0.00 0.00 79 1009.8
20260507160041 17 269 4.8 11.3 0.00 0.00 0.00 79 1009.7
20260507155527 17 269 3.2 8.0 0.00 0.00 0.00 80 1009.8
20260507155025 17 161 1.6 8.0 0.00 0.00 0.00 79 1009.9
20260507154526 16 269 1.6 11.3 0.00 0.00 0.00 80 1009.9
20260507154023 16 234 4.8 11.3 0.00 0.00 0.00 80 1009.9
20260507153522 16 269 3.2 12.9 0.00 0.00 0.00 80 1010.0
20260507153022 16 269 1.6 12.9 0.00 0.00 0.00 79 1010.1
20260507152522 16 1 0.0 8.0 0.00 0.00 0.00 80 1010.0
20260507152021 16 72 1.6 8.0 0.00 0.00 0.00 79 1010.0
20260507151520 16 283 3.2 8.0 0.00 0.00 0.00 79 1010.0
20260507151018 16 269 1.6 6.4 0.00 0.00 0.00 79 1010.0
20260507150518 16 178 1.6 4.8 0.00 0.00 0.00 79 1009.9
20260507150020 16 89 0.0 4.8 0.00 0.00 0.00 80 1009.9
20260507145514 16 240 0.0 4.8 0.00 0.00 0.00 80 1009.9
20260507145012 16 234 0.0 4.8 0.00 0.00 0.00 81 1009.9
20260507144516 15 269 0.0 4.8 0.00 0.00 0.00 81 1009.8
20260507144012 15 206 0.0 4.8 0.00 0.00 0.00 82 1009.8
20260507143509 15 135 0.0 4.8 0.00 0.00 0.00 83 1009.7
20260507143008 15 89 0.0 4.8 0.00 0.00 0.00 84 1009.7
20260507142505 14 178 0.0 3.2 0.00 0.00 0.00 84 1009.6
20260507142003 14 234 0.0 3.2 0.00 0.00 0.00 86 1009.6
20260507141508 13 178 0.0 3.2 0.00 0.00 0.00 86 1009.5
20260507141001 13 89 0.0 3.2 0.00 0.00 0.00 87 1009.5
20260507140559 13 46 0.0 3.2 0.00 0.00 0.00 87 1009.5
20260507140107 13 145 0.0 3.2 0.00 0.00 0.00 87 1009.4
20260507135556 13 89 0.0 3.2 0.00 0.00 0.00 86 1009.4
20260507135054 13 152 0.0 3.2 0.00 0.00 0.00 86 1009.4
20260507134553 13 135 0.0 3.2 0.00 0.00 0.00 85 1009.3
20260507134052 12 46 0.0 1.6 0.00 0.00 0.00 85 1009.1
20260507133550 12 46 0.0 1.6 0.00 0.00 0.00 85 1009.1
20260507133050 12 314 0.0 1.6 0.00 0.00 0.00 84 1009.1
20260507132547 12 63 0.0 3.2 0.00 0.00 0.00 84 1009.1
20260507132047 12 135 0.0 3.2 0.00 0.00 0.00 84 1009.0
20260507131548 12 89 0.0 3.2 0.00 0.00 0.00 84 1009.0
20260507131046 12 28 0.0 1.6 0.00 0.00 0.00 84 1009.0
20260507130545 12 46 0.0 1.6 0.00 0.00 0.00 84 1008.9
20260507130058 12 89 0.0 1.6 0.00 0.00 0.00 84 1008.9
20260507125543 12 89 0.0 3.2 0.00 0.00 0.00 84 1008.9
20260507125043 12 46 0.0 3.2 0.00 0.00 0.00 84 1008.9
20260507124558 12 46 0.0 3.2 0.00 0.00 0.00 84 1008.9
20260507124042 13 46 0.0 1.6 0.00 0.00 0.00 84 1008.9
20260507123542 13 63 0.0 1.6 0.00 0.00 0.00 84 1008.9
20260507123042 13 314 0.0 3.2 0.00 0.00 0.00 83 1008.9
20260507122541 13 46 0.0 3.2 0.00 0.00 0.00 83 1008.8
20260507122041 13 46 0.0 1.6 0.00 0.00 0.00 83 1008.9
20260507121542 13 135 0.0 1.6 0.00 0.00 0.00 83 1008.9
20260507121041 13 76 0.0 1.6 0.00 0.00 0.00 83 1008.8
20260507120539 13 117 0.0 1.6 0.00 0.00 0.00 83 1008.9
20260507120040 13 89 0.0 1.6 0.00 0.00 0.00 83 1008.9
20260507115539 13 89 0.0 3.2 0.00 0.00 0.00 83 1008.9
20260507115038 13 135 0.0 3.2 0.00 0.00 0.00 83 1008.9
20260507114549 13 89 0.0 3.2 0.00 0.00 0.00 83 1008.8
20260507114037 13 46 0.0 3.2 0.00 0.00 0.00 83 1008.9
20260507113536 13 89 0.0 3.2 0.00 0.00 0.00 83 1008.8
20260507113037 13 28 0.0 1.6 0.00 0.00 0.00 83 1008.9
20260507112535 13 1 0.0 1.6 0.00 0.00 0.00 83 1008.9
20260507112038 13 1 0.0 3.2 0.00 0.00 0.00 82 1009.0
20260507111534 13 56 0.0 3.2 0.00 0.00 0.00 83 1009.0
20260507111035 13 331 0.0 3.2 0.00 0.00 0.00 82 1009.1
20260507110533 13 35 0.0 3.2 0.00 0.00 0.00 83 1009.1
20260507110042 13 63 0.0 3.2 0.00 0.00 0.00 83 1009.2
20260507105532 13 1 0.0 3.2 0.00 0.00 0.00 83 1009.3
20260507105032 13 269 0.0 1.6 0.00 0.00 0.00 83 1009.2
20260507104532 13 135 0.0 1.6 0.00 0.00 0.00 82 1009.2
20260507104032 13 46 0.0 3.2 0.00 0.00 0.00 82 1009.1
20260507103532 13 56 0.0 3.2 0.00 0.00 0.00 82 1009.2
20260507103031 13 63 0.0 3.2 0.00 0.00 0.00 81 1009.2
20260507102531 13 46 0.0 6.4 0.00 0.00 0.00 81 1009.2
20260507102031 13 46 1.6 6.4 0.00 0.00 0.00 81 1009.2
20260507101530 13 68 1.6 6.4 0.00 0.00 0.00 81 1009.3
20260507101030 13 72 0.0 4.8 0.00 0.00 0.00 81 1009.2
20260507100528 13 56 1.6 4.8 0.00 0.00 0.00 81 1009.3
20260507100028 13 63 0.0 3.2 0.00 0.00 0.00 81 1009.2
20260507095527 13 46 0.0 3.2 0.00 0.00 0.00 81 1009.4
20260507095026 13 56 1.6 3.2 0.00 0.00 0.00 80 1009.3
20260507094525 13 89 0.0 3.2 0.00 0.00 0.00 80 1009.3
20260507094024 13 108 1.6 4.8 0.00 0.00 0.00 80 1009.4
20260507093524 13 89 0.0 4.8 0.00 0.00 0.00 80 1009.4
20260507093033 13 35 0.0 3.2 0.00 0.00 0.00 80 1009.4
20260507092523 13 89 0.0 4.8 0.00 0.00 0.00 80 1009.4
20260507092022 13 1 1.6 4.8 0.00 0.00 0.00 80 1009.5
20260507091534 13 89 0.0 3.2 0.00 0.00 0.00 80 1009.6
20260507091021 14 46 1.6 3.2 0.00 0.00 0.00 80 1009.7
20260507090520 14 89 0.0 3.2 0.00 0.00 0.00 80 1009.7
20260507090019 14 63 0.0 4.8 0.00 0.00 0.00 80 1009.8
20260507085518 14 28 1.6 4.8 0.00 0.00 0.00 80 1009.9
20260507085018 14 108 0.0 3.2 0.00 0.00 0.00 79 1009.9
20260507084521 14 53 0.0 3.2 0.00 0.00 0.00 79 1010.0
20260507084016 14 28 0.0 6.4 0.00 0.00 0.00 79 1010.0
20260507083516 14 28 1.6 0.0 2.72 2.49 0.00 79 1010.1
20260507083016 14 89 0.0 3.2 0.00 0.00 0.00 79 1010.1
20260507082515 14 63 1.6 3.2 0.00 0.00 0.00 79 1010.1
20260507082017 14 89 0.0 3.2 0.00 0.00 0.00 79 1010.2
20260507081514 14 46 1.6 3.2 0.00 0.00 0.00 78 1010.3
20260507081013 14 1 0.0 3.2 0.00 0.00 0.00 78 1010.3
20260507080512 15 46 0.0 3.2 0.00 0.00 0.00 78 1010.3
20260507080012 15 46 0.0 1.6 0.00 0.00 0.00 78 1010.3
20260507075510 15 46 0.0 1.6 0.00 0.00 0.00 78 1010.3
20260507075011 15 46 0.0 1.6 0.00 0.00 0.00 78 1010.3
20260507074510 15 46 0.0 1.6 0.00 0.00 0.00 78 1010.2
20260507074009 15 135 0.0 1.6 0.00 0.00 0.00 78 1010.1
20260507073509 15 269 0.0 1.6 0.00 0.00 0.00 78 1010.1
20260507073009 15 46 0.0 1.6 0.00 0.00 0.00 77 1010.2
20260507072508 15 314 0.0 1.6 0.00 0.00 0.00 77 1010.1
20260507072009 15 46 0.0 1.6 0.00 0.00 0.00 77 1010.2
20260507071510 15 135 0.0 1.6 0.00 0.00 0.00 77 1010.2
20260507071007 15 89 0.0 3.2 0.00 0.00 0.00 77 1010.3
20260507070506 15 46 0.0 3.2 0.00 0.00 0.00 78 1010.3
20260507070008 15 89 0.0 3.2 0.00 0.00 0.00 78 1010.3
20260507065503 15 46 0.0 3.2 0.00 0.00 0.00 78 1010.3
20260507065003 15 89 0.0 3.2 0.00 0.00 0.00 78 1010.3
20260507064503 15 63 0.0 3.2 0.00 0.00 0.00 77 1010.3
20260507064004 15 152 0.0 3.2 0.00 0.00 0.00 77 1010.3
20260507063502 15 135 0.0 3.2 0.00 0.00 0.00 76 1010.5
20260507063008 15 303 0.0 3.2 0.00 0.00 0.00 75 1010.4
20260507062505 15 46 0.0 1.6 0.00 0.00 0.00 74 1010.4
20260507062002 15 46 0.0 1.6 0.00 0.00 0.00 74 1010.4
20260507061503 15 46 0.0 3.2 0.00 0.00 0.00 74 1010.5
20260507061003 15 46 0.0 3.2 0.00 0.00 0.00 74 1010.5
20260507060502 15 269 0.0 1.6 0.00 0.00 0.00 73 1010.5
20260507060002 15 269 0.0 1.6 0.00 0.00 0.00 73 1010.6
20260507055502 15 89 0.0 1.6 0.00 0.00 0.00 73 1010.5
20260507055001 16 152 0.0 3.2 0.00 0.00 0.00 73 1010.4